YN8O-13 Weather Reports


Display with metric or nautical units.
time (UTC)temp
F
wind
direction
speed
MPH
gust
MPH
rain 1hr
in
rain 24hr
in
rain mn
in
humidity
%
barometer
mb
20260504110159 75 72 3.0 4.0 0.00 0.00 0.00 63 1013.0
20260504100157 75 72 3.0 4.0 0.00 0.00 0.00 63 1013.0
20260504081153 75 72 3.0 4.0 0.00 0.00 0.00 63 1013.0
20260504080153 75 72 3.0 4.0 0.00 0.00 0.00 63 1013.0
20260504070150 75 72 3.0 4.0 0.00 0.00 0.00 63 1014.0
20260504060149 81 72 4.0 7.0 0.00 0.00 0.00 54 1014.0
20260504050147 81 72 4.0 7.0 0.00 0.00 0.00 54 1014.0
20260504045146 81 72 4.0 7.0 0.00 0.00 0.00 54 1014.0
20260504044146 81 72 4.0 7.0 0.00 0.00 0.00 54 1014.0
20260504043146 84 96 4.0 11.0 0.00 0.00 0.00 42 1014.0
20260504042145 84 96 4.0 11.0 0.00 0.00 0.00 42 1015.0
20260504041145 84 96 4.0 11.0 0.00 0.00 0.00 42 1015.0
20260504040145 84 96 4.0 11.0 0.00 0.00 0.00 42 1015.0
20260504035145 84 96 4.0 11.0 0.00 0.00 0.00 42 1015.0
20260504034144 84 96 4.0 11.0 0.00 0.00 0.00 42 1015.0
20260504033144 84 96 4.0 11.0 0.00 0.00 0.00 42 1014.0
20260504032144 84 96 4.0 11.0 0.00 0.00 0.00 42 1014.0
20260504031144 84 96 4.0 11.0 0.00 0.00 0.00 42 1014.0
20260504030143 84 96 4.0 11.0 0.00 0.00 0.00 42 1014.0
20260504025143 84 96 4.0 11.0 0.00 0.00 0.00 42 1014.0
20260504024143 84 96 4.0 11.0 0.00 0.00 0.00 42 1014.0
20260504023143 84 96 4.0 11.0 0.00 0.00 0.00 42 1014.0
20260504022142 84 96 4.0 11.0 0.00 0.00 0.00 42 1013.0
20260504021142 84 96 4.0 11.0 0.00 0.00 0.00 42 1013.0
20260504020141 84 96 4.0 11.0 0.00 0.00 0.00 42 1013.0
20260504015141 84 96 4.0 11.0 0.00 0.00 0.00 42 1013.0
20260504014141 84 96 4.0 11.0 0.00 0.00 0.00 42 1013.0
20260504013140 84 96 4.0 11.0 0.00 0.00 0.00 42 1012.0
20260504012140 84 96 4.0 11.0 0.00 0.00 0.00 42 1011.0
20260504011139 84 96 4.0 11.0 0.00 0.00 0.00 42 1011.0
20260504010139 84 96 4.0 11.0 0.00 0.00 0.00 42 1011.0
20260504005139 84 96 4.0 11.0 0.00 0.00 0.00 42 1011.0
20260504004138 84 96 4.0 11.0 0.00 0.00 0.00 42 1011.0
20260504003138 91 81 5.0 8.0 0.00 0.00 0.00 26 1011.0
20260504002138 91 81 5.0 8.0 0.00 0.00 0.00 26 1010.0
20260504001137 91 81 5.0 8.0 0.00 0.00 0.00 26 1010.0
20260504000137 91 81 5.0 8.0 0.00 0.00 0.00 26 1010.0
20260503235137 91 81 5.0 8.0 0.00 0.00 0.00 26 1010.0
20260503234137 91 81 5.0 8.0 0.00 0.00 0.00 26 1010.0
20260503233136 91 81 5.0 8.0 0.00 0.00 0.00 26 1010.0
20260503232136 91 81 5.0 8.0 0.00 0.00 0.00 26 1008.0
20260503231136 91 81 5.0 8.0 0.00 0.00 0.00 26 1008.0
20260503230135 91 81 5.0 8.0 0.00 0.00 0.00 26 1008.0
20260503225135 91 81 5.0 8.0 0.00 0.00 0.00 26 1008.0
20260503224135 91 81 5.0 8.0 0.00 0.00 0.00 26 1008.0
20260503223134 91 81 5.0 8.0 0.00 0.00 0.00 26 1008.0
20260503222134 91 81 5.0 8.0 0.00 0.00 0.00 26 1007.0
20260503221133 91 81 5.0 8.0 0.00 0.00 0.00 26 1007.0
20260503220133 91 81 5.0 8.0 0.00 0.00 0.00 26 1007.0
20260503215132 91 81 5.0 8.0 0.00 0.00 0.00 26 1007.0
20260503214132 91 81 5.0 8.0 0.00 0.00 0.00 26 1007.0
20260503213132 91 81 6.0 8.0 0.00 0.00 0.00 26 1007.0
20260503212132 91 79 6.0 7.0 0.00 0.00 0.00 28 1008.0
20260503211131 92 79 6.0 7.0 0.00 0.00 0.00 26 1008.0
20260503210131 92 79 6.0 7.0 0.00 0.00 0.00 26 1008.0
20260503205131 92 79 6.0 7.0 0.00 0.00 0.00 26 1008.0
20260503204131 92 79 6.0 7.0 0.00 0.00 0.00 27 1008.0
20260503203130 91 79 6.0 7.0 0.00 0.00 0.00 27 1008.0
20260503202130 91 90 7.0 7.0 0.00 0.00 0.00 30 1009.0
20260503201130 90 90 7.0 7.0 0.00 0.00 0.00 30 1009.0
20260503200129 90 90 7.0 7.0 0.00 0.00 0.00 28 1009.0
20260503195129 90 90 7.0 7.0 0.00 0.00 0.00 28 1009.0
20260503194129 90 90 7.0 7.0 0.00 0.00 0.00 28 1009.0
20260503193128 90 90 7.0 7.0 0.00 0.00 0.00 28 1009.0
20260503192128 89 90 7.0 7.0 0.00 0.00 0.00 32 1010.0
20260503191127 89 90 7.0 7.0 0.00 0.00 0.00 32 1010.0
20260503190127 89 90 7.0 7.0 0.00 0.00 0.00 31 1010.0
20260503185127 89 90 7.0 7.0 0.00 0.00 0.00 31 1010.0
20260503184127 89 90 7.0 7.0 0.00 0.00 0.00 32 1010.0
20260503183126 89 90 7.0 7.0 0.00 0.00 0.00 32 1010.0
20260503182125 88 87 7.0 9.0 0.00 0.00 0.00 36 1012.0
20260503181125 88 87 7.0 9.0 0.00 0.00 0.00 36 1012.0
20260503180125 88 87 7.0 9.0 0.00 0.00 0.00 34 1011.0
20260503175124 88 87 7.0 9.0 0.00 0.00 0.00 34 1011.0
20260503174124 87 87 7.0 9.0 0.00 0.00 0.00 36 1012.0
20260503173124 87 87 7.0 9.0 0.00 0.00 0.00 36 1012.0
20260503172123 86 78 5.0 10.0 0.00 0.00 0.00 41 1013.0
20260503171123 86 78 5.0 10.0 0.00 0.00 0.00 41 1013.0
20260503170122 86 78 5.0 10.0 0.00 0.00 0.00 41 1013.0
20260503160121 83 61 3.0 8.0 0.00 0.00 0.00 51 1014.0
20260503150119 81 54 3.0 5.0 0.00 0.00 0.00 61 1014.0
20260503140116 77 51 1.0 4.0 0.00 0.00 0.00 72 1014.0
20260503131115 73 98 1.0 1.0 0.00 0.00 0.00 80 1014.0
20260503130115 73 98 1.0 1.0 0.00 0.00 0.00 80 1014.0
20260503120112 73 98 1.0 1.0 0.00 0.00 0.00 80 1014.0